[[{"header":{"parameterUnit":"m.s-1","parameterCategory":1,"la1":30.2991,"la2":30.254,"lo1":-89.0895,"lo2":-89.0444,"dy":0.0017,"dx":0.0017,"nx":28,"ny":28,"refTime":"2026-01-29T03:00:00:Z","depth":0,"parameterNumber":2,"parameterNumberName":"U-component_of_WINDS"},"data":[0,0,0,0,0,0,0,0,0,0,0,0,0,0,0,0,0,0,0,0,0,0,0,0,0,0,0,0,0,0,0,0,0,0,0,0,0,0,0,0,0,0,0,0,0,0,0,0,0,0,0,0,0,0,0,0,0,0,1.6471,1.6472,0,1.6526,1.6527,1.6528,1.652,1.6519,1.6519,1.6518,1.6576,1.6578,1.658,0,0,0,0,0,0,0,0,0,0,0,0,0,1.6362,1.6364,1.6471,1.6472,1.6472,1.6526,1.6527,1.6528,1.6521,1.6519,1.6518,1.6517,1.6575,1.6578,1.6581,0,0,0,0,0,0,0,0,0,0,0,0,0,1.6412,1.6364,1.6471,1.6475,1.6476,1.6526,1.6527,1.6528,1.6521,1.6519,1.6518,1.6517,1.6574,1.6577,1.6581,1.663,0,0,1.6592,1.6593,0,0,0,0,0,0,0,0,1.6409,1.6416,1.6474,1.6475,1.6476,1.6515,1.651,1.6562,1.6521,1.6504,1.6518,1.6516,1.6557,1.6562,1.6575,1.6633,1.6636,1.6592,1.6594,1.6596,1.6597,0,0,0,0,0,0,0,1.6406,1.6414,1.6493,1.6475,1.6476,1.6475,1.6481,1.652,1.6537,1.6505,1.6505,1.6511,1.6557,1.6572,1.6576,1.6636,1.6592,1.6595,1.6598,1.6599,1.674,1.6742,0,0,0,0,0,0,1.6401,1.6411,1.6491,1.6495,1.6439,1.6478,1.6485,1.6504,1.6537,1.6541,1.6513,1.6511,1.6566,1.6572,1.6578,1.664,1.6596,1.6599,1.6601,1.6738,1.674,1.6742,0,0,0,0,0,0,1.6399,1.6408,1.6489,1.6453,1.6463,1.6482,1.6503,1.6506,1.652,1.6542,1.6546,1.6524,1.6565,1.6573,1.6618,1.6641,1.6601,1.6604,1.6737,1.6739,1.6741,1.6762,0,0,0,0,0,0,1.6396,1.6407,1.6426,1.6453,1.6465,1.6527,1.6505,1.6508,1.6526,1.6525,1.6554,1.6557,1.6565,1.6613,1.6621,1.6646,1.6607,1.6735,1.6738,1.674,1.6759,1.6765,1.6769,0,0,0,0,0,1.6392,1.6429,1.6427,1.6436,1.6488,1.6528,1.6535,1.6542,1.6528,1.6547,1.6562,1.6557,1.6637,1.6617,1.6627,1.6653,1.6733,1.6737,1.674,1.6757,1.6764,1.6769,0,0,0,0,0,0,1.6404,1.6433,1.643,1.6478,1.65,1.6527,1.6551,1.6549,1.6576,1.6574,1.6582,1.6589,1.6634,1.6648,1.6625,1.6703,1.6683,1.6689,1.6693,1.6699,1.6704,1.67,1.661,0,0,0,0,0,1.6412,1.6442,1.6465,1.6505,1.6517,1.6532,1.655,1.6553,1.6578,1.6587,1.6605,1.6629,1.666,1.668,1.671,1.6761,1.6768,1.6784,1.6789,1.6793,1.6798,1.6828,1.6835,1.6754,1.6754,1.6754,0,0,1.6429,1.6449,1.6467,1.6508,1.6526,1.6558,1.654,1.6574,1.6597,1.6592,1.6636,1.665,1.6678,1.6726,1.6748,1.6739,1.6822,1.6798,1.6801,1.6804,1.6832,1.684,1.6847,1.6756,1.6756,1.6756,0,0,1.6477,1.6494,1.653,1.6548,1.6576,1.6586,1.6595,1.6622,1.6631,1.6675,1.6673,1.6701,1.6754,1.6774,1.6792,1.6849,1.6846,1.6858,1.6885,1.6914,1.692,1.6926,1.6948,1.6955,1.6863,1.6863,1.6863,0,1.6495,1.6541,1.6548,1.6583,1.6602,1.6599,1.6636,1.6654,1.669,1.6703,1.6692,1.676,1.6778,1.6832,1.6846,1.686,1.6871,1.6855,1.6919,1.6925,1.693,1.6951,1.6959,1.6865,1.6865,1.6864,1.6864,0,1.6563,1.6596,1.6621,1.6656,1.6678,1.6713,1.6726,1.6748,1.675,1.6762,1.6807,1.6829,1.6864,1.6877,1.688,1.6932,1.6926,1.6917,1.6897,1.6939,1.6959,1.6967,1.6867,1.6866,1.6866,1.6865,0,0,1.6619,1.6659,1.6668,1.6685,1.6716,1.6742,1.6778,1.6811,1.683,1.6856,1.6887,1.6933,1.6925,1.6945,1.6949,1.6975,1.702,1.6963,1.6964,1.6974,1.7081,1.7088,1.7097,1.7018,1.702,1.7021,1.7079,0,1.6671,1.6734,1.6742,1.6798,1.6829,1.6828,1.6859,1.6882,1.6895,1.6924,1.6937,1.697,1.6957,1.6969,1.6994,1.7009,1.7042,1.7005,1.7049,1.705,1.7042,1.7107,1.7115,1.7169,1.7087,1.7088,1.7089,0,1.6739,1.6766,1.6826,1.6854,1.6868,1.6896,1.6929,1.6956,1.6983,1.699,1.7013,1.7015,1.7053,1.7032,1.7086,1.7061,1.7079,1.709,1.7092,1.7097,1.7072,1.7115,1.7186,1.7194,1.7101,1.71,1.7099,0,1.6775,1.6827,1.687,1.6884,1.6918,1.6938,1.6953,1.6979,1.6999,1.7028,1.7042,1.7075,1.7093,1.7119,1.7131,1.7114,1.7185,1.7164,1.7193,1.7193,1.7208,1.7207,1.7284,1.7219,1.7219,1.7218,1.7218,0,1.6832,1.6869,1.6887,1.6913,1.6955,1.6965,1.7006,1.702,1.7043,1.7074,1.7074,1.7103,1.7116,1.7147,1.7156,1.72,1.7208,1.7216,1.7218,1.7216,1.7216,1.7229,1.7226,1.7221,1.722,1.722,1.7219,0,1.688,1.6893,1.694,1.6969,1.6977,1.7006,1.7031,1.7058,1.707,1.7108,1.7118,1.7138,1.7174,1.7188,1.7232,1.7239,1.729,1.7289,1.7281,1.7282,1.731,1.7308,1.7399,1.7412,1.7338,1.7338,1.7339,0,1.6915,1.6944,1.6976,1.6996,1.7012,1.7044,1.7065,1.7076,1.7098,1.7132,1.7154,1.719,1.722,1.7279,1.7298,1.7332,1.7332,1.7362,1.7337,1.7335,1.7334,1.7332,1.7336,1.7366,1.7367,1.7368,1.7368,0,1.6978,1.6983,1.7013,1.7046,1.7072,1.7098,1.7124,1.7141,1.7156,1.7181,1.7218,1.7241,1.7287,1.7323,1.7359,1.7376,1.7375,1.7376,1.7385,1.7383,1.7378,1.7382,1.7294,1.7374,1.7373,1.7373,1.7372,1.7372,1.7021,1.7047,1.7074,1.7108,1.7128,1.7153,1.7179,1.7196,1.7227,1.7265,1.7269,1.731,1.7338,1.7385,1.7404,1.7436,1.7429,1.7441,1.7444,1.7447,1.745,1.7372,1.7443,1.7443,1.7442,1.7442,1.7442,0,1.7085,1.7102,1.7133,1.717,1.7197,1.7193,1.7222,1.7246,1.7281,1.7307,1.7336,1.738,1.7416,1.7438,1.7474,1.7496,1.7497,1.7505,1.7504,1.7508,1.7454,1.7443,1.7504,1.7504,1.7504,1.7504,1.7504,1.7504,1.7121,1.7165,1.7174,1.7228,1.7246,1.7285,1.7302,1.7325,1.7346,1.7395,1.7424,1.7439,1.7464,1.7502,1.7535,1.7541,1.7555,1.7564,1.7569,1.7518,1.7512,1.7506,1.7496,1.7567,1.7567,1.7621,1.7621,1.7622]},{"header":{"parameterUnit":"m.s-1","parameterCategory":1,"la1":30.2991,"la2":30.254,"lo1":-89.0895,"lo2":-89.0444,"dy":0.0017,"dx":0.0017,"nx":28,"ny":28,"refTime":"2026-01-29T03:00:00:Z","depth":0,"parameterNumber":3,"parameterNumberName":"V-component_of_WINDS"},"data":[0,0,0,0,0,0,0,0,0,0,0,0,0,0,0,0,0,0,0,0,0,0,0,0,0,0,0,0,0,0,0,0,0,0,0,0,0,0,0,0,0,0,0,0,0,0,0,0,0,0,0,0,0,0,0,0,0,0,-1.6515,-1.6516,0,-1.6597,-1.6598,-1.6599,-1.6649,-1.6649,-1.6649,-1.665,-1.6732,-1.6734,-1.6736,0,0,0,0,0,0,0,0,0,0,0,0,0,-1.6404,-1.6405,-1.6515,-1.6516,-1.6517,-1.6597,-1.6598,-1.6599,-1.6649,-1.6649,-1.6649,-1.665,-1.6732,-1.6734,-1.6736,0,0,0,0,0,0,0,0,0,0,0,0,0,-1.6465,-1.6406,-1.6515,-1.6552,-1.6556,-1.6596,-1.6598,-1.6599,-1.6649,-1.6649,-1.6649,-1.665,-1.6731,-1.6734,-1.6737,-1.6747,0,0,-1.6746,-1.6747,0,0,0,0,0,0,0,0,-1.6462,-1.6469,-1.6545,-1.6549,-1.6554,-1.6613,-1.6589,-1.6649,-1.6649,-1.6613,-1.665,-1.665,-1.6692,-1.6698,-1.6713,-1.6751,-1.6754,-1.6746,-1.6748,-1.6749,-1.675,0,0,0,0,0,0,0,-1.6457,-1.6466,-1.6547,-1.6546,-1.6552,-1.6565,-1.6574,-1.6601,-1.665,-1.6616,-1.662,-1.6629,-1.6695,-1.671,-1.6715,-1.6756,-1.6746,-1.6748,-1.675,-1.6751,-1.681,-1.6809,0,0,0,0,0,0,-1.6447,-1.6462,-1.6545,-1.655,-1.6508,-1.6566,-1.6576,-1.6594,-1.6649,-1.6658,-1.6629,-1.6631,-1.6705,-1.6712,-1.6718,-1.6736,-1.6749,-1.6752,-1.6753,-1.681,-1.681,-1.6809,0,0,0,0,0,0,-1.6445,-1.6454,-1.6542,-1.6507,-1.6519,-1.6568,-1.6587,-1.6595,-1.661,-1.6659,-1.6668,-1.6635,-1.6705,-1.6714,-1.674,-1.674,-1.6753,-1.6756,-1.681,-1.681,-1.681,-1.677,0,0,0,0,0,0,-1.6441,-1.6453,-1.6457,-1.6507,-1.6521,-1.6562,-1.6587,-1.6596,-1.6615,-1.6619,-1.6667,-1.6676,-1.6706,-1.6736,-1.6743,-1.6744,-1.6758,-1.681,-1.681,-1.681,-1.6772,-1.6769,-1.6766,0,0,0,0,0,-1.6437,-1.6442,-1.6457,-1.6466,-1.6527,-1.6561,-1.657,-1.6605,-1.6615,-1.662,-1.6652,-1.6674,-1.6738,-1.6738,-1.6747,-1.6748,-1.6811,-1.681,-1.681,-1.6773,-1.6769,-1.6766,0,0,0,0,0,0,-1.6389,-1.6449,-1.6466,-1.6487,-1.6519,-1.657,-1.6577,-1.6599,-1.6629,-1.6631,-1.6674,-1.6684,-1.6706,-1.673,-1.6728,-1.6763,-1.6777,-1.6779,-1.6746,-1.6743,-1.674,-1.6734,-1.676,0,0,0,0,0,-1.6381,-1.6404,-1.6455,-1.6469,-1.6484,-1.6528,-1.6544,-1.6569,-1.6603,-1.6617,-1.665,-1.6683,-1.6711,-1.6728,-1.6757,-1.6776,-1.6788,-1.6782,-1.6778,-1.6776,-1.6776,-1.6791,-1.6789,-1.6808,-1.6808,-1.6808,0,0,-1.6365,-1.64,-1.6412,-1.646,-1.6488,-1.6511,-1.6538,-1.6561,-1.658,-1.662,-1.6648,-1.6674,-1.6713,-1.6736,-1.6748,-1.6757,-1.6774,-1.6775,-1.6773,-1.6775,-1.679,-1.6788,-1.6787,-1.6807,-1.6808,-1.6808,0,0,-1.6347,-1.6375,-1.6391,-1.6419,-1.6461,-1.649,-1.6494,-1.6542,-1.6561,-1.6589,-1.6621,-1.6644,-1.669,-1.6718,-1.6738,-1.6734,-1.6756,-1.6742,-1.6726,-1.674,-1.6738,-1.6737,-1.6737,-1.6736,-1.6742,-1.6742,-1.6742,0,-1.6321,-1.6357,-1.6396,-1.6418,-1.6439,-1.6478,-1.6495,-1.652,-1.6569,-1.6583,-1.6592,-1.6653,-1.6682,-1.6714,-1.6713,-1.6728,-1.6734,-1.6736,-1.6735,-1.6735,-1.6734,-1.6735,-1.6734,-1.674,-1.6741,-1.6741,-1.6741,0,-1.6324,-1.6349,-1.6357,-1.6404,-1.6426,-1.6446,-1.6488,-1.6506,-1.6529,-1.6558,-1.6588,-1.6625,-1.6662,-1.6672,-1.6694,-1.6707,-1.6711,-1.6727,-1.6743,-1.673,-1.6731,-1.6731,-1.6738,-1.6738,-1.6739,-1.6739,0,0,-1.6276,-1.6347,-1.6349,-1.6373,-1.6423,-1.6444,-1.6466,-1.6503,-1.6518,-1.6551,-1.6572,-1.6612,-1.6628,-1.6651,-1.6677,-1.6689,-1.6685,-1.6704,-1.6705,-1.67,-1.6704,-1.6692,-1.6692,-1.6701,-1.6701,-1.6701,-1.6701,0,-1.6267,-1.6308,-1.6345,-1.6373,-1.6398,-1.6437,-1.6457,-1.649,-1.6518,-1.6544,-1.6575,-1.6604,-1.6622,-1.6636,-1.6649,-1.6683,-1.6687,-1.6683,-1.6721,-1.6722,-1.671,-1.6692,-1.6679,-1.6677,-1.6702,-1.6702,-1.6702,0,-1.626,-1.6293,-1.6324,-1.6375,-1.6387,-1.6404,-1.6443,-1.6466,-1.6506,-1.6526,-1.6553,-1.6581,-1.6607,-1.662,-1.6658,-1.6655,-1.6673,-1.6692,-1.6693,-1.6698,-1.6711,-1.6698,-1.6677,-1.6677,-1.6703,-1.6703,-1.6703,0,-1.6225,-1.6276,-1.6303,-1.6321,-1.638,-1.6391,-1.6417,-1.6457,-1.6478,-1.6512,-1.6526,-1.6563,-1.6583,-1.661,-1.6648,-1.6654,-1.6683,-1.6698,-1.6701,-1.67,-1.6705,-1.6704,-1.6688,-1.6715,-1.6715,-1.6715,-1.6715,0,-1.621,-1.6228,-1.6288,-1.6303,-1.6325,-1.6368,-1.6389,-1.6417,-1.6453,-1.6476,-1.6512,-1.6533,-1.6581,-1.6608,-1.6638,-1.6666,-1.6674,-1.6692,-1.67,-1.6689,-1.6687,-1.6702,-1.6703,-1.6715,-1.6715,-1.6715,-1.6715,0,-1.6173,-1.6214,-1.6245,-1.6299,-1.6314,-1.6327,-1.6374,-1.6392,-1.6423,-1.6452,-1.6461,-1.651,-1.6544,-1.6585,-1.6631,-1.6652,-1.6677,-1.6688,-1.6664,-1.6669,-1.6669,-1.6669,-1.6662,-1.6664,-1.6689,-1.6689,-1.6688,0,-1.6162,-1.6177,-1.6233,-1.6252,-1.6276,-1.6305,-1.6327,-1.637,-1.6392,-1.644,-1.6453,-1.649,-1.6521,-1.6574,-1.6614,-1.6651,-1.6664,-1.6659,-1.6669,-1.6659,-1.6665,-1.6664,-1.6667,-1.6656,-1.6656,-1.6655,-1.6655,0,-1.6137,-1.6157,-1.6188,-1.6227,-1.6253,-1.6285,-1.6319,-1.6332,-1.6382,-1.6405,-1.6441,-1.6466,-1.6515,-1.6552,-1.6594,-1.6621,-1.6647,-1.6652,-1.6654,-1.6644,-1.6629,-1.6639,-1.6657,-1.6651,-1.6652,-1.6652,-1.6652,-1.6652,-1.6114,-1.613,-1.6173,-1.6206,-1.6237,-1.6268,-1.6288,-1.6323,-1.6353,-1.6397,-1.6421,-1.6457,-1.6499,-1.6558,-1.6584,-1.6614,-1.6623,-1.6626,-1.6627,-1.6628,-1.6625,-1.6625,-1.6621,-1.6621,-1.6622,-1.6622,-1.6622,0,-1.6092,-1.6122,-1.6153,-1.62,-1.6227,-1.625,-1.629,-1.6311,-1.6342,-1.6379,-1.641,-1.6453,-1.6489,-1.6533,-1.6573,-1.6588,-1.6601,-1.6597,-1.6596,-1.6602,-1.6614,-1.6608,-1.6586,-1.6586,-1.6586,-1.6586,-1.6586,-1.6586,-1.6084,-1.6113,-1.6139,-1.6184,-1.6214,-1.625,-1.6271,-1.63,-1.633,-1.6376,-1.6407,-1.6436,-1.6476,-1.652,-1.6555,-1.6567,-1.658,-1.6573,-1.6588,-1.6598,-1.6601,-1.6604,-1.6599,-1.6575,-1.6575,-1.6575,-1.6574,-1.6574]}]]